sat.trackr.live / text

‹ back to catalog

STARLINK-36097

NORAD 67091 · 2025-298S

PAYLOAD ACTIVE UNKNOWN

§ Identity

Operator
Country
US
Launch date
2025-12-14
Launch site
AFWTR
Launch vehicle
Mass (kg)
RCS (m²)

Purposes: comms

External: N2YO · Heavens-Above · Gunter

§ Orbital elements

Epoch: 2026-09-20T04:00:03.000096Z

Period
92.28 min
Inclination
69.9813°
Eccentricity
0.0008211
Mean motion
15.60516047 rev/d
Perigee alt
380.6 km
Apogee alt
391.7 km
Semi-major
6,764.3 km
B*
8.5164e-4
RAAN
210.3317°
Arg perigee
193.3451°
Mean anomaly
264.7927°
Rev number
546

§ Raw data

STARLINK-360971 67091U 25298S   26263.16670139  .00070975  00000+0  85164-3 0  99952 67091  69.9813 210.3317 0008211 193.3451 264.7927 15.60516047  5463

JSON: /api/v1/satellites/67091 · /tle

For live sub-satellite position, see the globe view (requires WebGL).

§ Visibility from observer

Set your observer location to see the next 7 days of passes ≥ 10°. The values pass through the URL so the page stays shareable.

No JS? Fill the form by hand. The geolocation button needs JavaScript.